Temp
50 50 51 52 50 50 49 49 49 48 46 46 46 45 45 41 42 40 39 39 38 37 37 36 36 36 35 35 35 34 33 34 30 31 31 32 32 32 32 32 33 33 33
49 49 48 49 50 49 48 48 47 46 46 44 44 45 44 42 41 40 39 40 37 37 37 35 35 39 34 34 32 32 31 30 29 27 29 29 29 30 30 29 32 34 33
50 50 50 50 49 46 47 46 46 43 44 45 45 45 43 42 41 39 38 38 37 37 36 35 34 33 32 32 31 30 31 33 30 28 27 28 28 29 28 29 30 31 33
51 52 49 49 48 47 46 45 43 45 45 45 44 43 42 41 40 40 39 37 36 36 35 34 34 33 32 32 32 32 31 29 28 27 26 26 27 28 27 26 26 30 29
51 50 47 46 46 46 45 45 45 46 45 44 42 41 40 40 41 38 37 36 34 34 34 34 34 35 38 35 33 31 30 27 26 25 25 25 25 24 24 26 24 26 27
48 45 46 46 46 45 43 44 45 45 43 41 39 39 39 40 40 39 38 34 34 34 32 32 32 36 34 37 37 36 31 28 25 23 24 23 24 24 24 23 23 22 21
46 46 46 45 45 43 45 45 43 42 41 39 38 37 36 36 38 39 39 34 33 32 31 31 32 34 34 32 34 35 33 33 28 26 23 24 21 24 25 23 24 24 24
46 45 45 44 44 44 44 43 41 40 39 37 36 35 34 35 38 38 38 34 32 31 30 30 30 31 32 31 31 29 29 29 30 30 27 26 25 27 26 27 25 25 26
44 45 45 45 44 43 41 40 39 37 36 35 34 33 32 32 36 36 35 31 30 30 31 30 30 30 32 35 29 26 27 28 32 33 33 31 32 32 31 25 22 21 19
44 45 45 44 43 41 40 39 36 34 34 33 32 32 34 32 34 36 35 29 32 32 32 30 33 31 32 33 29 25 22 26 27 27 27 29 30 29 30 27 23 19 20
45 44 44 43 41 41 38 35 34 32 32 30 30 30 31 31 31 35 36 31 32 32 31 29 30 32 33 33 33 26 25 28 26 26 26 26 26 26 26 26 26 22 20
43 42 42 41 39 38 34 34 33 31 29 28 26 29 29 31 33 34 35 35 33 31 31 31 31 33 33 34 33 31 31 28 25 23 22 22 22 23 25 25 26 26 26
40 38 36 36 34 33 32 31 30 29 28 29 29 29 31 33 29 33 34 34 34 30 33 33 32 32 32 31 32 31 30 29 26 24 23 23 24 25 26 26 27 27 26
33 32 31 30 31 30 31 31 28 26 27 30 30 30 31 32 31 29 29 31 32 32 31 32 32 31 29 29 29 30 30 28 27 25 23 23 22 21 22 24 22 23 21
31 30 29 29 28 28 30 29 30 30 29 30 30 31 30 31 33 34 32 31 30 29 25 24 29 28 26 26 26 27 27 26 24 23 20 20 20 20 20 21 21 21 19
29 28 27 27 27 27 27 27 32 33 34 34 34 32 32 34 35 36 36 36 34 31 27 26 27 27 27 27 25 25 25 25 25 23 21 21 20 19 19 20 20 19 17
25 27 25 25 25 24 24 25 23 27 31 32 32 33 33 33 33 33 34 34 33 32 30 28 27 28 28 27 26 25 24 25 25 23 23 21 20 19 17 18 18 18 17
24 23 21 21 21 23 24 25 25 24 23 25 30 29 28 29 31 32 32 32 29 29 29 29 29 27 25 26 25 25 25 25 22 22 20 20 19 18 17 16 17 14 15
24 22 21 20 24 25 25 22 21 21 20 21 22 23 22 27 27 27 27 25 25 26 27 28 29 29 26 26 27 26 25 24 22 18 20 19 17 18 16 15 16 11 11
23 21 19 20 20 20 20 19 19 18 19 18 18 18 19 19 17 18 18 17 17 17 18 19 21 27 28 29 26 26 25 23 22 19 18 19 17 16 17 14 11 13 16
19 19 16 19 16 16 16 15 15 14 15 13 14 16 16 15 14 14 14 13 13 14 14 16 18 19 20 26 28 26 25 24 23 21 20 18 16 16 16 15 13 13 14
15 14 14 13 13 12 11 13 10 9 10 9 9 12 10 11 12 12 11 11 11 12 13 14 14 16 18 17 17 23 26 25 24 23 21 20 18 18 16 13 12 12 13
11 5 7 11 7 6 5 6 5 2 6 5 5 7 8 7 7 10 9 9 10 9 11 12 12 13 15 15 16 17 18 26 27 25 23 21 19 18 14 13 12 10 11
6 1 6 3 -0 2 -5 -3 -0 1 3 2 -1 2 4 5 4 6 6 7 7 7 9 9 10 11 11 12 13 16 17 16 16 27 25 22 20 17 16 14 13 10 9
-2 -5 -6 -6 -6 -9 -10 -5 -6 -7 -6 -5 -4 -0 2 3 3 5 4 5 6 5 6 8 8 8 9 9 10 13 13 14 14 21 25 23 20 18 17 16 13 12 8
1 -3 -6 -10 -11 -12 -14 -14 -10 -12 -8 -4 -4 -4 -1 -1 0 2 2 2 3 3 5 6 7 6 6 7 11 12 12 14 13 20 25 23 20 18 16 16 13 13 10
MSLP
1017.02 1017.60 1018.29 1018.97 1019.70 1020.23 1020.89 1021.32 1021.69 1022.32 1022.93 1023.83 1023.95 1024.48 1024.81 1025.23 1025.27 1025.49 1025.68 1025.79 1025.89 1025.87 1025.89 1025.93 1025.90 1025.87 1025.83 1025.85 1025.90 1025.98 1026.18 1026.41 1026.50 1026.26 1026.28 1026.14 1026.12 1026.04 1025.93 1025.69 1025.30 1024.83 1024.39
1017.35 1017.96 1018.76 1019.51 1019.95 1020.62 1021.52 1022.25 1022.76 1023.42 1023.50 1023.47 1023.94 1024.03 1024.49 1024.93 1025.03 1025.18 1025.28 1025.31 1025.38 1025.47 1025.44 1025.61 1025.57 1025.54 1025.55 1025.49 1025.56 1025.67 1025.77 1025.88 1026.12 1026.14 1026.12 1026.13 1026.06 1025.82 1025.68 1025.47 1024.91 1024.41 1024.02
1017.52 1018.14 1018.94 1019.59 1020.47 1020.73 1021.53 1021.97 1022.91 1022.99 1023.38 1023.44 1023.97 1024.37 1024.48 1024.59 1024.63 1024.68 1024.75 1024.83 1024.96 1025.03 1025.05 1025.16 1025.14 1025.24 1025.24 1025.12 1025.17 1025.32 1025.41 1025.52 1025.73 1025.90 1025.93 1025.94 1025.78 1025.56 1025.28 1025.01 1024.60 1024.13 1023.63
1017.75 1018.16 1018.75 1019.30 1020.22 1021.02 1021.48 1022.28 1022.64 1022.84 1023.28 1023.54 1023.79 1023.96 1024.09 1024.13 1024.12 1024.10 1024.22 1024.38 1024.50 1024.58 1024.66 1024.71 1024.67 1024.65 1024.54 1024.48 1024.57 1024.65 1024.85 1025.19 1025.34 1025.53 1025.68 1025.63 1025.47 1025.17 1025.10 1024.77 1024.13 1023.74 1023.22
1018.00 1018.76 1019.51 1020.26 1020.86 1021.62 1022.20 1022.52 1022.87 1023.02 1023.27 1023.34 1023.63 1023.82 1023.90 1023.84 1023.69 1023.73 1023.85 1023.96 1024.07 1024.18 1024.17 1024.07 1024.02 1023.97 1023.80 1023.85 1023.83 1023.91 1024.26 1024.64 1024.91 1025.19 1025.35 1025.29 1025.09 1025.02 1024.86 1024.53 1024.12 1023.45 1022.83
1018.57 1019.40 1020.16 1020.88 1021.57 1021.91 1022.32 1022.60 1023.07 1023.19 1023.39 1023.54 1023.71 1023.77 1023.72 1023.65 1023.42 1023.32 1023.42 1023.53 1023.59 1023.66 1023.67 1023.59 1023.66 1023.46 1023.43 1023.20 1023.05 1023.07 1023.47 1023.95 1024.35 1024.79 1024.91 1024.91 1024.67 1024.65 1024.43 1024.30 1023.86 1023.32 1022.37
1019.18 1020.05 1020.72 1021.25 1021.75 1022.18 1022.46 1022.64 1022.99 1023.27 1023.41 1023.58 1023.69 1023.74 1023.64 1023.44 1023.15 1022.95 1022.73 1022.84 1022.95 1023.02 1023.11 1023.16 1023.12 1022.95 1022.89 1022.86 1022.70 1022.68 1022.98 1023.21 1023.59 1024.13 1024.37 1024.43 1024.33 1024.13 1023.96 1023.69 1023.42 1022.99 1022.29
1019.75 1020.48 1021.14 1021.63 1022.03 1022.33 1022.68 1022.81 1022.99 1023.10 1023.36 1023.42 1023.45 1023.43 1023.34 1023.08 1022.77 1022.49 1022.30 1022.38 1022.44 1022.48 1022.56 1022.63 1022.60 1022.49 1022.39 1022.49 1022.57 1022.66 1022.74 1022.91 1023.17 1023.39 1023.62 1023.67 1023.73 1023.50 1023.40 1023.01 1022.79 1022.39 1021.83
1020.49 1021.02 1021.41 1021.78 1022.28 1022.31 1022.76 1022.92 1022.93 1023.17 1023.26 1023.26 1023.22 1023.14 1022.98 1022.60 1022.25 1021.97 1021.96 1022.00 1022.04 1022.02 1021.97 1021.96 1021.94 1021.84 1021.74 1021.97 1022.18 1022.37 1022.37 1022.47 1022.50 1022.55 1022.58 1022.74 1022.71 1022.54 1022.42 1022.49 1022.41 1022.16 1021.38
1020.88 1021.28 1021.61 1022.00 1022.25 1022.51 1022.70 1022.83 1022.94 1023.03 1023.05 1022.99 1022.87 1022.58 1022.24 1021.89 1021.67 1021.54 1021.57 1021.63 1021.66 1021.50 1021.38 1021.14 1021.03 1020.96 1021.02 1021.28 1021.53 1021.74 1021.94 1021.86 1022.06 1022.18 1022.28 1022.27 1022.15 1022.14 1021.99 1021.98 1021.92 1021.86 1021.50
1021.15 1021.55 1021.83 1022.14 1022.22 1022.46 1022.67 1022.77 1022.77 1022.76 1022.71 1022.57 1022.27 1021.80 1021.62 1021.43 1021.04 1020.93 1020.89 1020.90 1020.77 1020.70 1020.54 1020.30 1020.08 1019.98 1020.10 1020.34 1020.54 1020.84 1020.91 1021.07 1021.40 1021.62 1021.74 1021.76 1021.74 1021.68 1021.54 1021.34 1021.25 1021.33 1021.12
1021.51 1021.86 1021.95 1022.18 1022.43 1022.49 1022.64 1022.54 1022.50 1022.44 1022.31 1022.06 1021.79 1021.31 1020.94 1020.56 1020.27 1019.91 1019.79 1019.72 1019.64 1019.76 1019.53 1019.46 1019.30 1019.18 1019.21 1019.31 1019.55 1019.71 1019.95 1020.36 1020.74 1021.05 1021.21 1021.22 1021.15 1021.00 1020.77 1020.66 1020.52 1020.46 1020.31
1022.08 1022.43 1022.66 1022.73 1022.83 1022.88 1022.94 1022.81 1022.70 1022.52 1022.36 1022.07 1021.76 1021.12 1020.25 1019.64 1019.41 1019.08 1018.68 1018.43 1018.32 1018.51 1018.44 1018.36 1018.38 1018.43 1018.44 1018.44 1018.61 1018.82 1019.15 1019.48 1019.82 1020.15 1020.29 1020.33 1020.24 1020.07 1020.07 1020.07 1019.84 1019.79 1019.51
1022.88 1023.17 1023.31 1023.38 1023.26 1023.12 1022.99 1022.85 1022.79 1022.48 1022.17 1021.80 1021.24 1020.58 1019.85 1019.05 1018.66 1018.39 1018.09 1017.75 1017.52 1017.11 1017.10 1017.43 1017.60 1017.72 1017.77 1017.81 1017.95 1018.09 1018.24 1018.45 1018.72 1019.08 1019.34 1019.41 1019.50 1019.64 1019.58 1019.57 1019.56 1019.40 1019.18
1023.56 1023.74 1023.79 1023.68 1023.55 1023.32 1023.09 1022.88 1022.58 1022.36 1022.14 1021.54 1021.03 1020.40 1019.75 1018.64 1017.86 1017.55 1017.20 1016.82 1016.55 1016.43 1016.19 1016.52 1016.84 1017.18 1017.14 1017.18 1017.33 1017.49 1017.66 1017.81 1018.04 1018.37 1018.67 1018.82 1018.95 1019.11 1019.09 1019.10 1019.17 1019.05 1018.90
1023.96 1024.03 1024.03 1023.93 1023.74 1023.48 1023.11 1022.61 1022.59 1022.15 1021.73 1021.38 1020.89 1020.38 1019.19 1018.68 1017.54 1016.59 1016.00 1015.54 1015.28 1015.42 1015.58 1015.74 1015.78 1016.07 1016.22 1016.42 1016.52 1016.61 1016.80 1016.98 1017.14 1017.48 1017.79 1017.98 1018.24 1018.43 1018.61 1018.80 1018.82 1018.78 1018.58
1024.36 1024.47 1024.50 1024.37 1024.16 1023.85 1023.59 1023.25 1022.40 1021.55 1021.73 1021.10 1020.50 1019.81 1019.14 1018.06 1016.88 1016.00 1015.29 1014.69 1014.27 1014.54 1014.62 1014.78 1015.01 1015.11 1015.11 1015.50 1015.59 1015.67 1015.80 1015.97 1016.20 1016.62 1016.81 1017.09 1017.45 1017.78 1018.15 1018.36 1018.42 1018.46 1018.20
1024.85 1025.00 1024.98 1024.87 1024.75 1024.41 1024.07 1023.70 1023.32 1022.68 1021.56 1020.40 1020.07 1019.84 1019.25 1018.19 1017.04 1016.13 1015.42 1014.75 1014.54 1014.34 1014.46 1014.42 1014.26 1014.37 1014.45 1014.53 1014.56 1014.60 1014.74 1015.05 1015.44 1015.74 1016.07 1016.34 1016.70 1017.10 1017.60 1017.90 1018.01 1018.18 1018.01
1025.12 1025.18 1025.26 1025.16 1024.89 1024.48 1024.24 1024.06 1023.81 1023.42 1022.88 1022.14 1021.10 1020.34 1019.97 1018.98 1018.16 1017.48 1016.74 1016.25 1015.71 1015.17 1014.81 1014.43 1014.02 1013.80 1013.72 1013.75 1013.64 1013.68 1013.86 1014.12 1014.46 1014.93 1015.22 1015.60 1016.06 1016.51 1016.95 1017.29 1017.52 1017.65 1017.69
1025.56 1025.72 1025.67 1025.49 1025.27 1025.02 1024.83 1024.64 1024.30 1024.02 1023.54 1023.18 1022.63 1021.96 1021.18 1020.14 1019.40 1018.97 1018.70 1018.39 1017.86 1017.18 1016.60 1015.94 1015.16 1014.08 1013.40 1013.06 1013.00 1013.03 1013.18 1013.42 1013.68 1014.12 1014.47 1014.84 1015.30 1015.86 1016.29 1016.71 1017.09 1017.35 1017.26
1026.26 1026.23 1026.19 1025.93 1025.86 1025.75 1025.62 1025.39 1025.15 1024.85 1024.47 1024.18 1023.72 1023.03 1022.53 1021.85 1021.21 1020.65 1020.20 1019.73 1019.27 1018.53 1017.87 1017.12 1016.15 1015.43 1014.64 1013.57 1012.68 1012.54 1012.60 1012.67 1012.82 1013.11 1013.54 1014.05 1014.63 1015.18 1015.66 1016.15 1016.55 1016.81 1016.98
1026.92 1026.92 1026.76 1026.63 1026.58 1026.54 1026.45 1026.04 1025.92 1025.72 1025.42 1025.03 1024.43 1023.65 1023.11 1022.67 1022.06 1021.52 1021.07 1020.65 1020.15 1019.54 1018.87 1017.92 1017.04 1016.30 1015.52 1014.92 1014.25 1013.09 1012.14 1012.03 1012.04 1012.24 1012.61 1013.11 1013.74 1014.35 1014.98 1015.66 1016.12 1016.45 1016.70
1027.52 1027.61 1027.44 1027.30 1027.41 1027.23 1027.17 1026.87 1026.58 1026.40 1026.10 1025.70 1025.16 1024.40 1023.76 1023.30 1022.82 1022.01 1021.58 1021.13 1020.52 1019.83 1019.14 1018.41 1017.59 1016.64 1015.97 1015.37 1014.70 1014.04 1013.16 1011.84 1011.22 1011.27 1011.59 1012.13 1012.82 1013.48 1014.33 1015.02 1015.57 1016.16 1016.46
1028.09 1028.16 1028.13 1028.24 1028.27 1028.14 1027.98 1027.69 1027.40 1027.04 1026.64 1026.20 1025.72 1025.02 1024.32 1023.69 1023.15 1022.45 1021.83 1021.32 1020.71 1020.06 1019.38 1018.64 1017.84 1017.08 1016.40 1015.67 1014.82 1013.98 1013.33 1012.79 1012.14 1010.51 1010.63 1011.18 1011.81 1012.69 1013.56 1014.34 1015.02 1015.60 1016.01
1028.51 1028.75 1029.01 1029.21 1029.23 1029.18 1028.90 1028.52 1028.22 1027.78 1027.21 1026.61 1026.09 1025.39 1024.67 1024.04 1023.33 1022.58 1022.02 1021.45 1020.72 1020.10 1019.28 1018.58 1017.90 1017.25 1016.48 1015.66 1014.80 1013.98 1013.20 1012.28 1011.65 1010.56 1009.89 1010.43 1010.99 1011.79 1012.74 1013.62 1014.49 1015.27 1015.78
1029.00 1029.14 1029.32 1029.34 1029.42 1029.37 1029.56 1029.28 1028.78 1028.13 1027.57 1026.78 1026.22 1025.67 1024.92 1024.27 1023.57 1022.80 1022.19 1021.55 1020.90 1020.21 1019.36 1018.55 1017.78 1017.11 1016.38 1015.46 1014.48 1013.72 1012.77 1011.75 1010.84 1009.66 1009.21 1009.75 1010.49 1011.33 1012.31 1013.19 1014.09 1014.76 1015.38
Wind_Speed
9 8 10 8 7 8 7 7 8 6 6 4 5 6 5 6 6 5 6 6 6 5 4 5 6 4 4 3 3 3 3 4 6 2 2 1 2 4 6 6 7 7 7
7 8 10 10 10 9 7 6 4 3 3 6 7 6 4 6 6 6 6 6 6 6 6 5 6 3 5 5 4 5 4 4 3 4 2 2 4 4 5 7 7 8 7
11 12 11 10 7 7 6 5 4 6 6 5 2 4 5 6 6 6 6 6 5 6 5 5 6 5 5 4 4 4 3 3 3 3 3 2 3 2 3 5 6 7 6
10 10 11 9 7 6 5 5 7 5 4 3 3 4 5 5 6 5 5 6 6 5 5 6 6 6 7 6 5 6 5 4 3 3 3 3 3 3 3 5 7 5 8
11 9 6 6 7 7 5 6 5 4 2 1 1 2 4 4 4 5 6 5 6 6 6 6 6 7 10 8 4 5 5 4 3 3 3 2 4 3 4 3 7 8 8
9 8 8 8 7 6 5 5 3 2 1 2 3 4 4 3 7 8 7 6 6 6 6 5 5 9 10 11 12 12 8 6 4 3 2 4 6 5 3 5 6 7 7
10 9 8 6 6 5 4 4 2 3 2 5 4 4 5 6 9 11 11 6 6 5 5 5 6 5 7 5 7 8 8 10 5 4 5 6 4 4 4 6 7 8 9
10 8 6 5 5 5 3 0 3 2 4 4 4 5 5 6 11 12 10 5 5 6 6 6 6 6 6 5 4 4 5 5 5 5 7 7 7 7 7 6 7 8 7
8 6 5 5 4 3 4 5 3 3 3 4 4 5 6 7 10 10 8 5 5 7 6 6 7 7 10 12 6 7 6 6 8 13 14 14 14 12 9 2 4 5 7
6 5 4 3 2 3 3 4 3 3 5 4 6 6 8 7 8 10 8 3 8 8 9 8 14 10 13 12 7 7 6 8 5 4 4 7 9 7 11 5 4 5 7
5 4 3 2 1 3 4 2 4 5 5 6 6 7 7 8 8 13 15 6 7 9 9 7 7 15 16 18 15 8 10 7 6 5 5 5 5 6 5 5 5 4 6
4 1 2 3 3 3 4 5 5 6 6 7 6 9 7 9 14 15 17 15 12 9 11 8 8 15 17 16 13 17 19 9 5 5 4 5 5 6 5 5 6 6 7
6 6 6 6 5 5 5 6 5 5 5 8 7 9 11 8 7 16 18 18 17 9 8 13 16 16 16 12 17 16 14 7 7 6 6 6 6 5 4 4 5 7 8
7 6 5 5 6 5 4 4 4 4 5 7 8 9 10 10 8 6 7 9 14 12 11 10 11 11 7 7 7 11 7 7 7 6 6 5 3 2 3 3 2 4 4
5 4 4 4 4 5 4 5 6 5 5 9 9 10 11 14 13 15 12 10 8 9 4 3 5 7 5 5 5 6 6 6 6 5 4 5 4 3 3 2 2 3 4
5 5 5 5 5 6 7 8 9 14 16 17 20 17 14 21 28 27 25 25 21 16 4 5 6 7 7 8 7 6 6 7 6 6 5 5 5 4 4 2 2 3 4
6 6 5 6 6 7 7 9 12 12 18 19 19 21 24 26 28 25 23 22 15 12 8 6 7 7 8 8 8 7 7 7 7 5 5 5 5 4 3 3 3 3 4
5 6 4 5 4 6 7 7 6 9 12 13 17 21 25 28 26 21 18 11 2 1 3 5 6 6 6 8 8 8 7 6 6 6 5 5 5 4 3 4 4 3 3
5 4 4 3 5 7 6 6 6 7 8 9 11 13 18 24 23 24 25 10 8 6 4 5 6 6 6 7 8 7 7 7 6 4 5 5 5 5 4 4 4 4 3
5 7 5 4 4 5 5 6 6 7 8 8 8 9 12 12 11 11 10 10 10 8 8 9 10 8 6 6 6 6 6 6 6 5 5 5 5 6 5 4 4 3 3
4 5 6 5 5 5 6 6 6 6 6 7 7 8 15 8 9 8 9 9 9 9 9 9 9 9 9 10 5 5 6 6 6 6 6 6 6 6 5 4 4 4 3
4 4 4 4 4 4 5 5 5 6 6 7 8 8 10 7 7 7 8 8 8 8 8 9 8 9 8 8 9 10 6 7 6 6 7 6 7 6 5 4 4 3 3
4 4 4 4 4 5 4 5 3 3 6 5 7 7 7 7 7 7 7 7 8 8 8 8 9 9 9 9 8 8 9 7 7 7 8 8 7 7 6 4 4 3 3
3 3 4 4 2 4 3 4 3 6 6 6 5 6 7 7 7 9 6 7 7 8 8 8 8 12 12 11 10 8 8 9 11 7 10 8 8 9 7 4 5 4 3
3 3 2 2 3 3 4 4 4 4 5 4 5 6 7 7 8 8 7 9 8 9 11 10 8 12 13 18 15 15 16 18 14 15 7 9 10 13 9 7 5 4 3
2 2 2 2 3 2 2 3 4 4 5 6 5 6 7 7 8 8 7 9 9 11 12 9 11 15 16 13 14 18 19 20 17 17 9 8 9 9 8 8 9 5 5
Wind_Direction
171 156 154 148 124 111 117 138 149 137 148 185 178 188 207 214 214 204 217 216 215 223 223 224 254 243 245 232 213 195 188 208 246 265 236 261 281 271 284 289 293 289 284
113 108 106 108 112 114 107 107 117 166 233 164 198 203 202 220 220 220 226 218 217 230 247 236 252 244 245 234 216 227 218 196 191 237 234 247 236 254 262 288 294 301 293
121 121 121 120 115 125 136 153 178 157 188 186 185 231 239 239 241 236 229 229 227 239 248 245 252 242 249 238 226 229 217 223 204 217 255 236 257 263 282 281 281 283 285
133 137 134 138 143 140 128 139 163 165 156 160 201 240 258 274 262 257 230 230 242 243 249 245 243 234 235 238 227 221 207 217 202 219 247 251 249 266 272 291 303 296 301
132 122 88 91 99 102 118 137 125 118 119 152 255 278 269 264 261 250 241 244 248 256 254 245 238 244 247 228 208 221 202 204 209 228 254 262 273 276 282 291 296 299 295
104 101 120 111 123 128 126 109 90 74 317 208 221 248 276 269 261 252 239 238 244 244 256 260 254 270 270 266 262 228 194 194 208 196 233 263 273 261 255 285 287 306 319
115 119 121 121 111 105 101 101 121 221 225 235 256 267 278 281 275 265 253 228 231 241 246 252 260 238 258 251 263 223 206 215 188 183 234 250 255 244 264 282 276 286 285
112 109 104 113 108 103 93 208 231 228 241 250 263 274 279 278 272 273 272 252 242 246 243 244 235 248 236 233 237 233 225 223 231 229 229 244 236 255 249 264 278 286 281
103 110 111 106 129 131 241 252 255 241 247 246 249 274 273 275 282 276 277 259 253 254 251 234 229 230 238 245 215 229 234 237 241 254 256 242 246 269 278 277 295 303 305
108 117 126 135 175 249 269 269 245 229 244 252 266 255 261 271 276 272 267 217 269 265 259 245 242 223 228 241 224 213 224 242 224 243 251 258 259 261 275 254 252 274 292
110 120 128 220 343 282 282 245 258 257 262 262 260 265 262 253 266 264 261 239 243 260 255 249 233 230 228 238 228 202 215 225 226 227 240 248 255 257 256 254 242 236 268
106 104 31 352 305 305 294 289 277 269 265 269 272 278 258 255 245 255 252 239 233 239 257 251 243 236 235 230 229 224 224 221 218 224 233 246 250 255 253 246 252 256 252
42 31 19 2 355 344 323 309 310 300 287 285 281 282 286 272 248 252 253 246 239 234 241 250 240 245 247 242 237 226 227 215 219 224 236 242 236 237 248 251 259 268 277
56 36 19 10 350 346 330 310 291 285 294 295 297 295 294 290 282 263 258 261 259 237 233 248 247 245 234 236 234 235 228 213 215 225 230 237 236 222 215 220 251 282 287
55 28 11 356 347 338 332 312 313 298 273 306 303 299 305 301 295 283 267 266 251 241 213 173 224 241 229 219 219 222 224 218 215 220 218 227 227 217 230 219 240 275 274
40 18 8 357 350 344 337 330 326 319 315 316 314 307 303 299 299 296 291 286 262 232 199 211 219 221 231 243 228 225 218 221 217 214 214 217 228 215 219 234 234 246 283
36 18 4 360 351 348 346 340 334 334 327 320 314 312 308 301 304 301 300 297 264 246 235 221 223 233 232 235 230 218 221 216 214 209 209 208 208 207 183 231 242 254 282
42 26 12 353 346 344 345 345 334 340 340 345 354 6 358 347 344 335 336 327 314 268 260 269 249 229 230 232 228 225 219 212 207 208 203 203 191 186 190 223 230 231 267
32 23 0 343 358 359 356 347 333 332 335 335 338 355 355 353 7 10 10 0 340 322 301 270 260 250 235 235 234 226 214 210 200 189 202 195 185 178 204 219 230 227 229
27 18 357 353 351 356 349 347 356 349 349 348 346 349 349 352 1 3 5 2 356 353 350 343 342 323 274 258 235 225 216 211 203 197 201 193 179 180 197 201 202 222 243
21 10 1 4 8 359 357 340 9 348 351 344 338 341 349 352 349 354 353 358 349 345 343 337 336 337 336 330 265 230 221 217 211 199 194 191 171 183 194 191 202 211 237
28 7 358 9 359 353 351 339 14 346 341 338 333 333 348 347 341 344 347 346 339 337 335 329 333 328 335 338 328 320 245 229 215 201 193 183 178 181 168 177 191 197 219
31 14 4 12 351 347 354 342 355 338 334 331 332 330 337 338 334 327 339 334 334 331 333 329 328 327 333 329 327 319 326 291 231 205 195 181 175 173 163 169 169 178 200
38 20 16 3 343 348 341 326 345 341 331 328 320 323 323 327 322 319 329 328 325 328 324 323 323 325 326 323 322 321 322 320 319 237 193 182 174 163 161 154 164 174 170
44 21 14 333 349 335 340 331 332 321 308 306 312 321 316 326 323 319 332 325 325 327 322 321 316 318 316 320 314 317 319 316 309 287 188 178 170 162 161 162 150 156 151
12 18 345 334 346 341 337 320 310 306 313 312 315 313 309 319 317 315 323 322 325 319 315 313 311 312 312 311 310 319 316 313 311 288 182 168 159 153 152 156 158 157 151